Weather History for Miami, FL

Change the Weather History Date:

Sunday, December 29, 2013

  Actual Average Record
Temperature  
Mean Temperature 77 °F 69 °F  
Max Temperature 80 °F 77 °F 85 °F (1981)
Min Temperature 74 °F 61 °F 41 °F (1961)
Degree Days  
Heating Degree Days 0 2  
Month to date heating degree days 0 30  
Since 1 July heating degree days 2 33  
Cooling Degree Days 12 5  
Month to date cooling degree days 299 192  
Year to date cooling degree days 4840 4564  
Growing Degree Days 26 (Base 50)    
Moisture  
Dew Point 73 °F    
Average Humidity 90    
Maximum Humidity 100    
Minimum Humidity 79    
Precipitation  
Precipitation T in 0.05 in 0.98 in (1939)
Month to date precipitation 4.67 1.92  
Year to date precipitation 70.42 61.78  
Snow  
Snow 0.00 in - - ()
Month to date snowfall 0.0  
Since 1 July snowfall 0.0  
Snow Depth 0.00 in    
Sea Level Pressure  
Sea Level Pressure 30.01 in    
Wind  
Wind Speed 8 mph (South)    
Max Wind Speed 15 mph    
Max Gust Speed 24 mph    
Visibility 10 miles    
Events Rain    
T = Trace of Precipitation, MM = Missing Value Source: NWS Daily Summary

Daily Weather History Graph

Daily Weather History Graph

Search for Another Location

Airport:

Trip Planner

Search our weather history database for the weather conditions in past years. The results will help you decide how hot, cold, wet, or windy it might be!

Date:

Astronomy

Dec. 29, 2013 Rise Set
Actual Time 7:07 AM EST 5:39 PM EST
Civil Twilight 6:41 AM EST 6:05 PM EST
Nautical Twilight 6:13 AM EST 6:33 PM EST
Astronomical Twilight 5:45 AM EST 7:01 PM EST
Moon 3:57 AM EST (12/29) 3:10 PM EST (12/29)
Length of Visible Light 11h 23m
Length of Day
10h 32m
Waning Crescent, 11% of the Moon is Illuminated
Dec 29
Waning Crescent
Jan 1
New
Jan 7
First Quarter
Jan 15
Full
Jan 24
Last Quarter

Hourly Weather History & Observations

Time (EST) Temp. Heat Index Dew Point Humidity Pressure Visibility Wind Dir Wind Speed Gust Speed Precip Events Conditions
12:53 AM 77.0 °F - 71.1 °F 82% 30.04 in 10.0 mi SE 9.2 mph 18.4 mph N/A   Overcast
1:53 AM 75.9 °F - 71.1 °F 85% 30.02 in 10.0 mi SE 9.2 mph - N/A   Overcast
2:53 AM 75.9 °F - 72.0 °F 87% 30.01 in 10.0 mi SE 9.2 mph - N/A   Overcast
3:53 AM 75.9 °F - 72.0 °F 87% 30.00 in 10.0 mi SE 9.2 mph - N/A   Overcast
4:53 AM 75.9 °F - 72.0 °F 87% 29.98 in 10.0 mi SE 11.5 mph 18.4 mph N/A   Overcast
5:53 AM 75.9 °F - 72.0 °F 87% 30.01 in 10.0 mi SSE 5.8 mph - N/A   Overcast
6:53 AM 75.9 °F - 72.0 °F 87% 30.02 in 10.0 mi SSE 6.9 mph - N/A   Overcast
7:53 AM 77.0 °F - 72.0 °F 84% 30.03 in 10.0 mi SSE 5.8 mph - N/A   Overcast
8:53 AM 78.1 °F - 72.0 °F 81% 30.04 in 10.0 mi SSE 6.9 mph - N/A   Mostly Cloudy
9:53 AM 79.0 °F - 73.0 °F 82% 30.05 in 10.0 mi SE 11.5 mph - N/A   Overcast
10:53 AM 79.0 °F - 72.0 °F 79% 30.06 in 10.0 mi South 12.7 mph - N/A   Overcast
11:53 AM 80.1 °F 84.2 °F 73.0 °F 79% 30.03 in 10.0 mi SSE 11.5 mph - N/A   Overcast
12:53 PM 79.0 °F - 73.0 °F 82% 30.00 in 10.0 mi South 8.1 mph - 0.00 in Rain Light Rain
1:53 PM 79.0 °F - 73.9 °F 84% 29.98 in 10.0 mi South 9.2 mph - 0.00 in Rain Light Rain
2:53 PM 79.0 °F - 73.9 °F 84% 29.96 in 10.0 mi South 11.5 mph 18.4 mph 0.00 in   Overcast
3:53 PM 79.0 °F - 73.0 °F 82% 29.96 in 10.0 mi South 12.7 mph - N/A   Overcast
4:20 PM 78.8 °F - 73.4 °F 83% 29.96 in 10.0 mi South 11.5 mph - N/A   Overcast
4:53 PM 79.0 °F - 73.0 °F 82% 29.97 in 10.0 mi SSW 11.5 mph - N/A   Overcast
5:23 PM 78.8 °F - 73.4 °F 83% 29.98 in 10.0 mi South 10.4 mph - N/A   Overcast
5:53 PM 77.0 °F - 73.0 °F 88% 29.98 in 10.0 mi South 6.9 mph - N/A   Mostly Cloudy
6:53 PM 75.9 °F - 73.0 °F 91% 29.99 in 10.0 mi SSW 3.5 mph - N/A   Overcast
7:53 PM 75.9 °F - 73.0 °F 91% 30.01 in 10.0 mi SW 3.5 mph - N/A   Overcast
8:53 PM 75.0 °F - 73.0 °F 94% 30.02 in 10.0 mi South 3.5 mph - N/A   Mostly Cloudy
9:53 PM 75.0 °F - 73.0 °F 94% 30.03 in 10.0 mi South 3.5 mph - N/A   Scattered Clouds
10:53 PM 73.9 °F - 73.0 °F 97% 30.03 in 10.0 mi SSW 3.5 mph - N/A   Clear
11:53 PM 73.9 °F - 73.0 °F 97% 30.03 in 10.0 mi Calm Calm - N/A   Partly Cloudy